Voltar ao catálogo

CZ-6A DEB

AtivoPO
NORAD 64659·DEBRIS·🇨🇳 China

Lançado Aug 6, 2024 de Taiyuan Satellite Launch Center

Loading…

Próximas Passagens (próximas 24 horas)

TLE

AtualizadoSource: Space-Track

Época: Sep 14, 2026, 10:29 UTC

1 64659U 24140AEZ 26257.43732250  .00002562  00000-0  46871-3 0  9993
2 64659  88.9080 250.2403 0096808 285.1997  73.8527 14.62582128100780

Acompanhe CZ-6A DEB em tempo real com AllMySat

Download on the App Store